DECAYED

STARLINK-1800, 46700 (Decayed)

Orbit data source: Space-Track

STARLINK-1800, 46700 was a payload satellite owned by SpaceX/Seattle (US) in LEO that was launched on Sun, 18 Oct 2020 UTC via an FALCON 9 launch vehicle from the Air Force Eastern Test Range (AFETR). Payload-class satellites include a variety of spacecraft equipped with specific instruments for various scientific and technological missions. These include communications satellites like Starlink; space stations such as the ISS; scientific satellites like the Hubble; Earth observation satellites from companies like Planet Labs, Umbra, and HawkEye 360; GPS; miniature CubeSats for education and research; and military/defense satellites.

Not visible in the next 10 days
Identifier
46700, 2020-073AG
Orbit
Decayed
Country
Flag of USUS
Related business
Manufacturer
SpaceX/Seattle
Mission
Decayed Commercial Communications
Bus & Motor
STARLINK, Unknown motor
Mass
260 kg wet, ~248 kg dry
Launch date (UTC)
2020-10-18 (6 years ago)
Launch vehicle
FALCON 9
Launch site
Air Force Eastern Test Range (AFETR)
Object type
Payload
Rocket body
Debris
Shape & HBR
Box + 1 Pan, 10.1 m
Radar Cross Section
13.562 m², Large (>1 m²)

Expand to show TLE details & history
Last TLE update: 1 week ago

TLE from 1 week ago
0 STARLINK-1800
1 46700U 20073AG  26117.12702288  .10752863  12473-4  39160-3 0  9991
2 46700  53.0163 320.7552 0009163 274.2976  85.7025 16.43550535305313
Epoch: 2026-04-27T03:02Z
TLE epoch observation values (Epoch: 2026-04-27T03:02:54.776Z)
Latitude
-0°
Longitude
59.90581°
Altitude
156.859 km
Speed
7.814 km/s
True Right ascension
21h 23m 01s
True Declination
0° 00' 00"
Sunlit
Object was in daylight at epoch
Visualization orbit readout
Latitude
Unknown
Longitude
Unknown
Altitude
Unknown
Speed
Unknown
Apparent Right ascension
Unknown
Apparent Declination
Unknown
Sunlit
N/A
Visualization observer readout
Local Sidereal Time
07:49:02
Azimuth
Unknown
Elevation
Unknown
Doppler factor
Unknown
Orbital elements
Apogee altitude
162.655 km
Perigee altitude
150.68 km
Semi-major axis
6,534.804 km
Eccentricity
0.00092
Inclination
53.0163°
RAAN
320.7552°
Arg. of periapsis
274.2976°
True anomaly
85.80721°
Mean anomaly
85.7025°
Eccentric anomaly
85.75486°
Mean motion
4.1086 °/min
Orbital period
87.62 mins
BSTAR
0.0003916
Loading maneuver chart data...
Computing Atmospheric mass density...

Documentation

Showing up to 5 results
|